NORTHERN QUEENS  -  Air Quality Alert Air Quality Alert        SOUTHERN QUEENS  -  Air Quality Alert Air Quality Alert      

Active alerts

Northern Queens
  Details for Northern Queens Air Quality Alert
Southern Queens
  Details for Southern Queens Air Quality Alert


WXM80 ListenWXM80 Stop

You find our weather info also at:

UK Metoffice

WeatherCloud

Weather Underground

Northeastern Weather Network

AWEKAS

Citizen Weather Observer Program (CWOP)

HAMweather, WeatherForYou, PWS Weather


Weather Underground History page Text

Daily Summary for August 23, 2017 Units:  English    Metric   Both
« Previous Day
Next Day »
Daily Weekly Monthly Yearly Custom
  High: Low: Average:
Temperature: 85.2 °F 66.8 °F 76.3 °F
Dew Point: 73.8 °F 59.6 °F 66.6 °F
Humidity: 97 % 44 % 75 %
Wind Speed: 7.1 mph 0.0 mph 1.9 mph
Wind Gust: 14.0 mph - -
Wind:- - West
Pressure: 29.82 in 29.68 in -
Precipitation: 0.28 in    
Historical Graphs
 
 
Tabular Data for August 23, 2017
Time Temperature Dew Point Pressure Wind Wind Speed Wind Gust Humidity Rainfall Rate (Hourly)
00:04 77.0 °F 73.8 °F 29.74 in SW 4.6 mph 12.7 mph 90 % 0.00 in
00:09 76.7 °F 73.5 °F 29.74 in WSW 6.5 mph 12.0 mph 90 % 0.02 in
00:14 76.3 °F 73.1 °F 29.75 in WSW 5.2 mph 14.0 mph 90 % 0.05 in
00:19 76.0 °F 72.9 °F 29.74 in WSW 5.4 mph 6.9 mph 90 % 0.07 in
00:24 75.7 °F 72.9 °F 29.74 in SSW 6.0 mph 10.4 mph 91 % 0.09 in
00:29 75.5 °F 72.4 °F 29.74 in SW 5.6 mph 12.0 mph 90 % 0.11 in
00:34 75.1 °F 72.3 °F 29.73 in SW 4.1 mph 9.2 mph 91 % 0.11 in
00:39 74.8 °F 72.0 °F 29.73 in SW 7.1 mph 13.8 mph 91 % 0.11 in
00:44 74.5 °F 72.0 °F 29.74 in South 5.5 mph 10.4 mph 92 % 0.11 in
00:49 74.3 °F 71.8 °F 29.74 in West 1.2 mph 8.1 mph 92 % 0.11 in
00:54 74.1 °F 71.6 °F 29.73 in SW 2.7 mph 4.6 mph 92 % 0.13 in
00:59 74.0 °F 71.5 °F 29.73 in SW 2.7 mph 9.2 mph 92 % 0.13 in
01:04 73.9 °F 71.7 °F 29.73 in SSW 1.5 mph 5.0 mph 93 % 0.20 in
01:09 73.7 °F 71.5 °F 29.73 in SSW 3.1 mph 4.6 mph 93 % 0.19 in
01:14 73.6 °F 71.4 °F 29.73 in WSW 3.1 mph 5.0 mph 93 % 0.19 in
01:19 73.5 °F 71.7 °F 29.72 in WSW 1.6 mph 6.9 mph 94 % 0.17 in
01:24 73.5 °F 71.7 °F 29.72 in SW 3.2 mph 5.8 mph 94 % 0.17 in
01:29 73.4 °F 71.6 °F 29.71 in SW 0.2 mph 1.2 mph 94 % 0.15 in
01:31 73.4 °F 71.6 °F 29.71 in SSW 2.3 mph 5.8 mph 94 % 0.14 in
01:36 73.3 °F 71.5 °F 29.70 in SW 0.3 mph 1.2 mph 94 % 0.13 in
01:41 73.2 °F 71.4 °F 29.70 in SW 0.2 mph 2.3 mph 94 % 0.12 in
01:46 73.1 °F 71.3 °F 29.70 in WSW 0.9 mph 3.5 mph 94 % 0.12 in
01:51 73.1 °F 71.3 °F 29.70 in Calm     94 % 0.10 in
01:56 73.0 °F 71.2 °F 29.70 in Calm     94 % 0.09 in
02:00 73.0 °F 71.2 °F 29.70 in Calm     94 % 0.07 in
02:05 72.9 °F 71.1 °F 29.70 in Calm   1.2 mph 94 % 0.05 in
02:10 72.9 °F 71.1 °F 29.70 in Calm     94 % 0.04 in
02:15 72.8 °F 71.0 °F 29.69 in WSW 0.2 mph 1.2 mph 94 % 0.03 in
02:20 72.8 °F 71.0 °F 29.69 in SW 2.3 mph 3.5 mph 94 % 0.02 in
02:25 72.8 °F 71.3 °F 29.69 in Calm     95 % 0.01 in
02:30 72.7 °F 71.2 °F 29.69 in SW 0.2 mph 1.2 mph 95 % 0.01 in
02:35 72.7 °F 71.2 °F 29.68 in SW 2.9 mph 6.0 mph 95 % 0.01 in
02:40 72.7 °F 71.2 °F 29.68 in SW 1.8 mph 6.9 mph 95 % 0.01 in
02:45 72.7 °F 71.2 °F 29.69 in SW 2.1 mph 10.4 mph 95 % 0.00 in
02:48 72.6 °F 71.1 °F 29.69 in WSW 3.4 mph 6.9 mph 95 % 0.00 in
02:53 72.6 °F 71.1 °F 29.69 in SSW 3.4 mph 5.0 mph 95 % 0.00 in
02:58 72.6 °F 71.1 °F 29.69 in SSW 1.9 mph 4.6 mph 95 % 0.00 in
03:03 72.7 °F 71.2 °F 29.69 in WSW 1.7 mph 3.5 mph 95 % 0.00 in
03:08 72.7 °F 71.5 °F 29.69 in SW 2.6 mph 6.9 mph 96 % 0.00 in
03:13 72.7 °F 71.5 °F 29.69 in SSW 0.3 mph 6.9 mph 96 % 0.00 in
03:18 72.8 °F 71.6 °F 29.68 in SW 2.9 mph 5.8 mph 96 % 0.00 in
03:23 72.8 °F 71.6 °F 29.68 in SSW 2.7 mph 6.0 mph 96 % 0.00 in
03:28 72.8 °F 71.6 °F 29.68 in SW 5.3 mph 8.1 mph 96 % 0.00 in
03:33 72.8 °F 71.6 °F 29.68 in WSW 0.6 mph 2.3 mph 96 % 0.00 in
03:38 72.8 °F 71.6 °F 29.69 in SW 3.2 mph 3.5 mph 96 % 0.00 in
03:43 72.8 °F 71.6 °F 29.69 in WSW 3.9 mph 4.6 mph 96 % 0.00 in
03:48 72.9 °F 71.7 °F 29.68 in SW 2.5 mph 6.9 mph 96 % 0.00 in
03:53 72.9 °F 71.7 °F 29.68 in WSW 0.5 mph 4.0 mph 96 % 0.00 in
03:58 72.9 °F 71.7 °F 29.68 in West 1.5 mph 3.5 mph 96 % 0.00 in
04:04 72.9 °F 71.7 °F 29.68 in WSW 2.5 mph 6.9 mph 96 % 0.00 in
04:09 72.9 °F 71.7 °F 29.68 in SW 1.0 mph 4.6 mph 96 % 0.00 in
04:14 72.9 °F 71.7 °F 29.69 in SSW 0.9 mph 3.5 mph 96 % 0.00 in
04:19 72.9 °F 71.7 °F 29.69 in SSW 3.3 mph 3.5 mph 96 % 0.00 in
04:24 72.9 °F 71.7 °F 29.69 in SW 2.3 mph 3.5 mph 96 % 0.00 in
04:29 72.9 °F 71.7 °F 29.69 in SW 1.2 mph 3.5 mph 96 % 0.00 in
04:34 72.9 °F 71.7 °F 29.69 in WSW 0.5 mph 3.5 mph 96 % 0.00 in
04:44 72.9 °F 71.7 °F 29.69 in Calm   1.2 mph 96 % 0.00 in
04:49 72.9 °F 71.7 °F 29.69 in SW 0.1 mph 1.2 mph 96 % 0.00 in
04:54 72.9 °F 71.7 °F 29.69 in Calm     96 % 0.00 in
04:59 72.9 °F 71.7 °F 29.69 in WSW 1.3 mph 3.0 mph 96 % 0.01 in
05:04 72.9 °F 71.7 °F 29.69 in WSW 0.2 mph 1.2 mph 96 % 0.01 in
05:09 72.9 °F 71.7 °F 29.69 in SW 1.7 mph 5.8 mph 96 % 0.01 in
05:14 72.9 °F 71.7 °F 29.69 in SW 1.6 mph 3.5 mph 96 % 0.01 in
05:19 72.9 °F 71.7 °F 29.69 in SSW 1.0 mph 3.5 mph 96 % 0.01 in
05:24 72.9 °F 71.7 °F 29.69 in WSW 0.8 mph 4.6 mph 96 % 0.01 in
05:29 72.9 °F 71.7 °F 29.69 in WSW 0.1 mph 2.3 mph 96 % 0.01 in
05:34 72.9 °F 71.7 °F 29.69 in SW 2.1 mph 3.5 mph 96 % 0.01 in
05:39 72.9 °F 71.7 °F 29.69 in SSW 1.3 mph 3.5 mph 96 % 0.01 in
05:44 72.9 °F 71.7 °F 29.69 in SW 1.1 mph 2.3 mph 96 % 0.01 in
05:49 72.9 °F 71.7 °F 29.69 in WSW 2.9 mph 3.5 mph 96 % 0.01 in
05:55 72.9 °F 71.7 °F 29.69 in WSW 1.4 mph 3.5 mph 96 % 0.01 in
05:59 72.9 °F 71.7 °F 29.70 in Calm   3.5 mph 96 % 0.00 in
06:02 72.9 °F 71.7 °F 29.70 in WSW 1.4 mph 5.0 mph 96 % 0.00 in
06:07 73.0 °F 71.8 °F 29.69 in WSW 1.2 mph 3.5 mph 96 % 0.00 in
06:12 72.9 °F 71.7 °F 29.69 in SW 0.7 mph 3.5 mph 96 % 0.00 in
06:17 73.0 °F 72.1 °F 29.70 in WSW 1.6 mph 3.5 mph 97 % 0.00 in
06:22 73.0 °F 71.8 °F 29.70 in West 1.0 mph 5.8 mph 96 % 0.00 in
06:27 73.0 °F 72.1 °F 29.70 in WSW 0.4 mph 2.3 mph 97 % 0.00 in
06:32 73.0 °F 72.1 °F 29.71 in SSW 1.5 mph 3.5 mph 97 % 0.00 in
06:37 73.0 °F 72.1 °F 29.71 in SW 2.9 mph 5.8 mph 97 % 0.00 in
06:42 73.0 °F 72.1 °F 29.71 in WSW 2.2 mph 4.6 mph 97 % 0.00 in
06:47 73.1 °F 72.2 °F 29.71 in WSW 0.3 mph 3.5 mph 97 % 0.00 in
06:52 73.1 °F 72.2 °F 29.71 in West 2.1 mph 4.6 mph 97 % 0.00 in
06:57 73.1 °F 72.2 °F 29.71 in West 1.1 mph 3.5 mph 97 % 0.00 in
07:02 73.2 °F 72.3 °F 29.71 in WSW 0.6 mph 3.5 mph 97 % 0.00 in
07:08 73.2 °F 72.3 °F 29.71 in West 1.2 mph 5.0 mph 97 % 0.00 in
07:13 73.3 °F 72.4 °F 29.71 in SW 0.2 mph 3.5 mph 97 % 0.00 in
07:18 73.3 °F 72.4 °F 29.71 in SW 0.7 mph 3.0 mph 97 % 0.00 in
07:23 73.4 °F 72.5 °F 29.71 in WNW 0.5 mph 1.2 mph 97 % 0.00 in
07:28 73.5 °F 72.6 °F 29.72 in SSW 1.8 mph 3.5 mph 97 % 0.00 in
07:33 73.6 °F 72.7 °F 29.72 in West 3.8 mph 8.1 mph 97 % 0.00 in
07:38 73.6 °F 72.7 °F 29.72 in SW 3.1 mph 6.9 mph 97 % 0.00 in
07:41 73.6 °F 72.7 °F 29.72 in SW 0.2 mph 3.5 mph 97 % 0.00 in
07:46 73.6 °F 72.7 °F 29.72 in SW 1.7 mph 4.0 mph 97 % 0.00 in
07:51 73.6 °F 72.7 °F 29.72 in WNW 3.1 mph 6.9 mph 97 % 0.00 in
07:54 73.6 °F 72.7 °F 29.73 in West 3.9 mph 8.1 mph 97 % 0.00 in
07:59 73.6 °F 72.7 °F 29.73 in WSW 2.3 mph 3.5 mph 97 % 0.00 in
08:04 73.6 °F 72.7 °F 29.73 in WSW 3.4 mph 8.1 mph 97 % 0.00 in
08:09 73.6 °F 72.4 °F 29.73 in NW 1.0 mph 2.3 mph 96 % 0.00 in
08:14 73.5 °F 72.3 °F 29.73 in SW 2.1 mph 5.0 mph 96 % 0.00 in
08:19 73.6 °F 72.4 °F 29.73 in SW 3.8 mph 6.9 mph 96 % 0.00 in
08:24 73.6 °F 72.4 °F 29.73 in WSW 2.5 mph 4.0 mph 96 % 0.00 in
08:29 73.6 °F 72.4 °F 29.74 in WNW 2.1 mph 5.8 mph 96 % 0.00 in
08:34 73.6 °F 72.1 °F 29.73 in NW 3.4 mph 6.9 mph 95 % 0.00 in
08:39 73.5 °F 72.0 °F 29.73 in WSW 2.9 mph 5.0 mph 95 % 0.00 in
08:44 73.5 °F 71.7 °F 29.73 in NW 1.8 mph 4.0 mph 94 % 0.00 in
08:49 73.6 °F 71.8 °F 29.73 in WSW 2.7 mph 5.0 mph 94 % 0.00 in
08:54 73.6 °F 71.4 °F 29.74 in WSW 4.4 mph 5.8 mph 93 % 0.00 in
08:59 73.6 °F 71.4 °F 29.74 in WSW 3.6 mph 6.0 mph 93 % 0.00 in
09:04 73.6 °F 70.8 °F 29.74 in WNW 3.6 mph 5.8 mph 91 % 0.00 in
09:09 73.6 °F 70.8 °F 29.74 in WSW 5.1 mph 8.0 mph 91 % 0.00 in
09:10 73.6 °F 70.8 °F 29.74 in WSW 5.0 mph 8.1 mph 91 % 0.00 in
09:15 73.6 °F 70.2 °F 29.74 in SW 1.6 mph 4.6 mph 89 % 0.00 in
09:20 73.5 °F 69.7 °F 29.74 in WNW 1.2 mph 8.1 mph 88 % 0.00 in
09:25 73.5 °F 69.4 °F 29.75 in WNW 1.4 mph 4.6 mph 87 % 0.00 in
09:30 73.6 °F 69.5 °F 29.75 in West 2.2 mph 4.6 mph 87 % 0.00 in
09:35 73.6 °F 69.5 °F 29.75 in WNW 3.6 mph 6.9 mph 87 % 0.00 in
09:40 73.7 °F 69.6 °F 29.75 in West 2.1 mph 6.0 mph 87 % 0.00 in
09:45 73.8 °F 69.7 °F 29.76 in WNW 0.5 mph 4.6 mph 87 % 0.00 in
09:50 73.9 °F 69.8 °F 29.76 in WNW 1.8 mph 6.0 mph 87 % 0.00 in
09:55 74.0 °F 69.9 °F 29.76 in West 2.9 mph 6.0 mph 87 % 0.00 in
10:00 74.1 °F 69.6 °F 29.76 in West 0.2 mph 3.5 mph 86 % 0.00 in
10:05 74.3 °F 69.8 °F 29.76 in WSW 1.2 mph 3.5 mph 86 % 0.00 in
10:10 74.6 °F 70.1 °F 29.76 in West 2.2 mph 3.5 mph 86 % 0.00 in
10:15 74.8 °F 70.3 °F 29.76 in NW 2.2 mph 4.6 mph 86 % 0.00 in
10:20 75.2 °F 70.7 °F 29.76 in NW 0.6 mph 3.0 mph 86 % 0.00 in
10:25 75.6 °F 70.4 °F 29.77 in West 4.1 mph 6.0 mph 84 % 0.00 in
10:30 75.9 °F 70.4 °F 29.77 in West 4.0 mph 5.8 mph 83 % 0.00 in
10:35 76.2 °F 70.7 °F 29.77 in Calm   5.0 mph 83 % 0.00 in
10:41 76.6 °F 70.3 °F 29.77 in West 3.0 mph 6.0 mph 81 % 0.00 in
10:46 76.9 °F 70.7 °F 29.77 in West 1.0 mph 5.0 mph 81 % 0.00 in
10:51 77.4 °F 70.4 °F 29.77 in West 3.0 mph 8.0 mph 79 % 0.00 in
10:55 78.0 °F 70.9 °F 29.77 in West 2.0 mph 6.0 mph 79 % 0.00 in
11:00 78.7 °F 71.6 °F 29.77 in SW 1.7 mph 6.9 mph 79 % 0.00 in
11:05 79.4 °F 71.9 °F 29.77 in West 2.0 mph 7.0 mph 78 % 0.00 in
11:10 80.3 °F 73.1 °F 29.77 in West 1.0 mph 6.0 mph 79 % 0.00 in
11:15 80.9 °F 70.6 °F 29.77 in WNW 3.0 mph 9.0 mph 71 % 0.00 in
11:20 81.4 °F 70.7 °F 29.77 in WSW 5.0 mph 8.0 mph 70 % 0.00 in
11:25 82.0 °F 69.1 °F 29.77 in SW 4.1 mph 4.6 mph 65 % 0.00 in
11:30 82.3 °F 70.7 °F 29.77 in West 0.2 mph 1.2 mph 68 % 0.00 in
11:35 82.8 °F 69.8 °F 29.77 in NW 2.0 mph 5.8 mph 65 % 0.00 in
11:40 83.1 °F 68.7 °F 29.78 in WNW 4.0 mph 4.0 mph 62 % 0.00 in
11:45 83.1 °F 67.3 °F 29.78 in NW 2.1 mph 3.5 mph 59 % 0.00 in
11:50 83.0 °F 67.7 °F 29.78 in WNW 1.4 mph 3.5 mph 60 % 0.00 in
11:55 83.0 °F 66.7 °F 29.77 in SSW 3.3 mph 6.9 mph 58 % 0.00 in
12:00 83.0 °F 65.7 °F 29.77 in NW 1.2 mph 5.8 mph 56 % 0.00 in
12:05 83.4 °F 67.1 °F 29.77 in WNW 3.2 mph 8.1 mph 58 % 0.00 in
12:11 83.5 °F 65.1 °F 29.77 in WSW 2.0 mph 7.0 mph 54 % 0.00 in
12:16 83.8 °F 67.0 °F 29.77 in West 2.0 mph 6.0 mph 57 % 0.00 in
12:21 84.2 °F 66.2 °F 29.77 in WNW 3.0 mph 8.0 mph 55 % 0.00 in
12:26 84.3 °F 65.8 °F 29.77 in WNW 2.0 mph 5.0 mph 54 % 0.00 in
12:31 84.5 °F 67.1 °F 29.77 in Calm   3.0 mph 56 % 0.00 in
12:36 84.7 °F 65.7 °F 29.77 in West 2.0 mph 6.0 mph 53 % 0.00 in
12:41 84.9 °F 64.8 °F 29.77 in West 5.0 mph 10.0 mph 51 % 0.00 in
12:46 85.1 °F 65.5 °F 29.77 in West 3.0 mph 10.0 mph 52 % 0.00 in
12:51 85.2 °F 63.3 °F 29.77 in WNW 5.0 mph 7.0 mph 48 % 0.00 in
12:56 85.2 °F 65.0 °F 29.77 in WNW 1.0 mph 6.0 mph 51 % 0.00 in
13:01 85.2 °F 62.7 °F 29.77 in WNW 4.1 mph 6.9 mph 47 % 0.00 in
13:06 85.2 °F 66.1 °F 29.77 in WNW 1.2 mph 6.0 mph 53 % 0.00 in
13:11 85.1 °F 62.6 °F 29.77 in WNW 4.2 mph 9.2 mph 47 % 0.00 in
13:16 85.1 °F 63.8 °F 29.77 in West 5.0 mph 7.0 mph 49 % 0.00 in
13:21 84.9 °F 63.0 °F 29.77 in WNW 3.1 mph 7.0 mph 48 % 0.00 in
13:26 84.8 °F 65.2 °F 29.77 in WNW 0.5 mph 2.3 mph 52 % 0.00 in
13:27 84.7 °F 62.2 °F 29.78 in SW 3.1 mph 8.0 mph 47 % 0.00 in
13:32 84.7 °F 62.8 °F 29.77 in NNW 3.7 mph 3.7 mph 48 % 0.00 in
13:37 84.6 °F 62.7 °F 29.78 in NNW 2.9 mph 8.1 mph 48 % 0.00 in
13:42 84.5 °F 62.7 °F 29.77 in WNW 3.7 mph 7.0 mph 48 % 0.00 in
13:45 84.5 °F 62.7 °F 29.77 in West 3.4 mph 5.8 mph 48 % 0.00 in
13:50 84.4 °F 64.3 °F 29.78 in NW 0.5 mph 2.0 mph 51 % 0.00 in
13:55 84.4 °F 62.6 °F 29.78 in WSW 3.0 mph 6.9 mph 48 % 0.00 in
14:00 84.2 °F 61.8 °F 29.78 in WSW 0.8 mph 5.8 mph 47 % 0.00 in
14:05 84.1 °F 61.1 °F 29.77 in WNW 4.0 mph 8.1 mph 46 % 0.00 in
14:10 83.9 °F 60.9 °F 29.77 in NNW 1.4 mph 5.8 mph 46 % 0.00 in
14:15 83.8 °F 59.6 °F 29.77 in NW 6.0 mph 11.5 mph 44 % 0.00 in
14:20 83.7 °F 62.5 °F 29.77 in NW 5.7 mph 9.2 mph 49 % 0.00 in
14:25 83.6 °F 60.6 °F 29.77 in WSW 4.9 mph 6.9 mph 46 % 0.00 in
14:30 83.5 °F 61.7 °F 29.77 in WNW 2.2 mph 12.7 mph 48 % 0.00 in
14:36 83.4 °F 60.4 °F 29.77 in WNW 1.9 mph 5.8 mph 46 % 0.00 in
14:41 83.3 °F 59.7 °F 29.77 in NW 5.4 mph 9.2 mph 45 % 0.00 in
14:45 83.2 °F 61.5 °F 29.77 in NW 4.2 mph 9.2 mph 48 % 0.00 in
14:51 83.0 °F 60.7 °F 29.77 in WNW 2.0 mph 9.0 mph 47 % 0.00 in
14:56 82.8 °F 59.9 °F 29.77 in WNW 2.2 mph 5.8 mph 46 % 0.00 in
15:01 82.6 °F 60.9 °F 29.77 in NW 0.5 mph 3.5 mph 48 % 0.00 in
15:06 82.5 °F 60.8 °F 29.77 in West 5.0 mph 7.0 mph 48 % 0.00 in
15:11 82.5 °F 60.8 °F 29.77 in WNW 2.3 mph 8.1 mph 48 % 0.00 in
15:16 82.5 °F 61.4 °F 29.77 in SW 5.7 mph 9.2 mph 49 % 0.00 in
15:21 82.6 °F 61.5 °F 29.76 in WNW 2.3 mph 5.8 mph 49 % 0.00 in
15:26 82.7 °F 62.2 °F 29.77 in SW 2.3 mph 8.0 mph 50 % 0.00 in
15:31 82.7 °F 60.4 °F 29.77 in NE 2.8 mph 5.8 mph 47 % 0.00 in
15:36 82.7 °F 61.6 °F 29.76 in WNW 3.2 mph 7.0 mph 49 % 0.00 in
15:46 82.9 °F 61.2 °F 29.76 in WNW 3.2 mph 8.1 mph 48 % 0.00 in
15:51 82.9 °F 61.2 °F 29.76 in WSW 1.2 mph 6.9 mph 48 % 0.00 in
15:56 82.8 °F 61.1 °F 29.76 in WNW 2.8 mph 5.8 mph 48 % 0.00 in
16:06 82.7 °F 63.3 °F 29.76 in North 2.3 mph 8.1 mph 52 % 0.00 in
16:11 82.6 °F 62.6 °F 29.76 in NW 3.4 mph 10.4 mph 51 % 0.00 in
16:16 82.6 °F 62.1 °F 29.76 in NW 2.4 mph 9.2 mph 50 % 0.00 in
16:21 82.5 °F 62.0 °F 29.76 in WNW 2.9 mph 3.5 mph 50 % 0.00 in
16:26 82.4 °F 61.9 °F 29.76 in WNW 2.8 mph 10.4 mph 50 % 0.00 in
16:31 82.2 °F 63.4 °F 29.76 in WNW 0.4 mph 4.6 mph 53 % 0.00 in
16:36 82.1 °F 62.7 °F 29.76 in NW 3.5 mph 4.6 mph 52 % 0.00 in
16:41 82.0 °F 61.5 °F 29.76 in West 3.0 mph 5.0 mph 50 % 0.00 in
16:46 81.8 °F 61.9 °F 29.76 in WNW 1.0 mph 6.0 mph 51 % 0.00 in
16:51 81.7 °F 62.4 °F 29.76 in WNW 1.7 mph 4.6 mph 52 % 0.00 in
16:57 81.6 °F 60.6 °F 29.76 in West 1.9 mph 8.1 mph 49 % 0.00 in
17:02 81.6 °F 60.6 °F 29.76 in West 3.9 mph 8.1 mph 49 % 0.00 in
17:07 81.4 °F 60.4 °F 29.76 in WNW 3.7 mph 10.4 mph 49 % 0.00 in
17:12 81.2 °F 60.8 °F 29.76 in NW 0.2 mph 3.5 mph 50 % 0.00 in
17:17 81.1 °F 61.3 °F 29.76 in WNW 1.9 mph 6.9 mph 51 % 0.00 in
17:22 81.0 °F 61.2 °F 29.76 in SW 5.0 mph 8.1 mph 51 % 0.00 in
17:27 80.9 °F 60.5 °F 29.76 in WSW 1.8 mph 6.9 mph 50 % 0.00 in
17:32 80.9 °F 60.5 °F 29.76 in WNW 5.5 mph 10.4 mph 50 % 0.00 in
17:37 80.8 °F 61.5 °F 29.76 in SW 1.6 mph 5.0 mph 52 % 0.00 in
17:42 80.7 °F 60.9 °F 29.76 in WNW 2.2 mph 6.9 mph 51 % 0.00 in
17:47 80.6 °F 60.8 °F 29.76 in WNW 3.2 mph 6.0 mph 51 % 0.00 in
17:52 80.5 °F 60.7 °F 29.77 in WNW 1.8 mph 6.0 mph 51 % 0.00 in
17:57 80.4 °F 61.2 °F 29.76 in WNW 1.4 mph 3.5 mph 52 % 0.00 in
18:02 80.2 °F 61.0 °F 29.77 in West 2.1 mph 6.9 mph 52 % 0.00 in
18:07 80.1 °F 60.9 °F 29.77 in NW 2.6 mph 3.5 mph 52 % 0.00 in
18:12 79.9 °F 61.2 °F 29.77 in Calm   2.3 mph 53 % 0.00 in
18:17 79.7 °F 61.1 °F 29.77 in NW 0.2 mph 3.5 mph 53 % 0.00 in
18:22 79.4 °F 60.8 °F 29.77 in NW 2.2 mph 6.0 mph 53 % 0.00 in
18:28 79.1 °F 61.0 °F 29.77 in NW 0.7 mph 3.5 mph 54 % 0.00 in
18:33 78.9 °F 60.8 °F 29.76 in NW 2.6 mph 5.8 mph 54 % 0.00 in
18:38 78.6 °F 60.6 °F 29.77 in WNW 2.5 mph 3.5 mph 54 % 0.00 in
18:43 78.4 °F 59.9 °F 29.77 in West 1.0 mph 3.5 mph 53 % 0.00 in
18:48 78.1 °F 60.6 °F 29.77 in West 0.2 mph 3.5 mph 55 % 0.00 in
18:53 77.8 °F 59.8 °F 29.77 in West 2.8 mph 6.0 mph 54 % 0.00 in
18:58 77.6 °F 59.6 °F 29.77 in West 2.2 mph 4.6 mph 54 % 0.00 in
19:03 77.5 °F 60.1 °F 29.78 in NW 3.4 mph 4.6 mph 55 % 0.00 in
19:08 77.3 °F 60.4 °F 29.77 in WNW 2.1 mph 3.5 mph 56 % 0.00 in
19:13 77.1 °F 60.2 °F 29.78 in WNW 0.9 mph 3.5 mph 56 % 0.00 in
19:18 76.9 °F 60.0 °F 29.78 in NW 1.8 mph 4.6 mph 56 % 0.00 in
19:23 76.7 °F 60.3 °F 29.77 in NW 1.9 mph 4.6 mph 57 % 0.00 in
19:28 76.5 °F 60.6 °F 29.78 in WNW 1.5 mph 3.5 mph 58 % 0.00 in
19:33 76.3 °F 60.4 °F 29.78 in NW 0.3 mph 1.2 mph 58 % 0.00 in
19:38 76.1 °F 60.7 °F 29.78 in NW 0.1 mph 1.2 mph 59 % 0.00 in
19:43 75.8 °F 60.4 °F 29.78 in Calm   1.2 mph 59 % 0.00 in
19:48 75.7 °F 60.8 °F 29.79 in WNW 0.3 mph 1.2 mph 60 % 0.00 in
19:54 75.5 °F 60.6 °F 29.79 in Calm   1.2 mph 60 % 0.00 in
19:59 75.2 °F 60.8 °F 29.79 in WNW 0.1 mph 1.2 mph 61 % 0.00 in
20:04 75.0 °F 60.6 °F 29.79 in Calm   1.2 mph 61 % 0.00 in
20:09 74.9 °F 60.5 °F 29.80 in Calm     61 % 0.00 in
20:14 74.7 °F 61.3 °F 29.80 in WNW 0.8 mph 2.3 mph 63 % 0.00 in
20:19 74.4 °F 61.0 °F 29.80 in WNW 0.4 mph 1.2 mph 63 % 0.00 in
20:24 74.3 °F 61.3 °F 29.80 in WNW 0.7 mph 2.3 mph 64 % 0.00 in
20:29 74.1 °F 61.1 °F 29.80 in Calm     64 % 0.00 in
20:34 73.9 °F 61.4 °F 29.80 in WNW 0.6 mph 1.2 mph 65 % 0.00 in
20:39 73.7 °F 61.2 °F 29.80 in WNW 0.9 mph 1.2 mph 65 % 0.00 in
20:44 73.6 °F 61.5 °F 29.80 in WNW 0.2 mph 2.3 mph 66 % 0.00 in
20:49 73.4 °F 61.3 °F 29.80 in WNW 0.6 mph 2.3 mph 66 % 0.00 in
20:54 73.2 °F 61.6 °F 29.81 in Calm   3.5 mph 67 % 0.00 in
20:56 73.2 °F 61.6 °F 29.81 in WNW 0.3 mph 1.2 mph 67 % 0.00 in
21:01 73.0 °F 61.4 °F 29.81 in WNW 0.2 mph 1.2 mph 67 % 0.00 in
21:06 72.9 °F 61.7 °F 29.80 in West 2.2 mph 3.5 mph 68 % 0.00 in
21:11 72.8 °F 61.2 °F 29.81 in WNW 0.8 mph 2.0 mph 67 % 0.00 in
21:16 72.6 °F 61.0 °F 29.81 in WNW 0.1 mph 1.2 mph 67 % 0.00 in
21:21 72.5 °F 60.9 °F 29.81 in West 0.1 mph 2.3 mph 67 % 0.00 in
21:26 72.5 °F 61.3 °F 29.81 in NW 0.9 mph 2.0 mph 68 % 0.00 in
21:31 72.4 °F 60.8 °F 29.82 in WNW 0.6 mph 2.3 mph 67 % 0.00 in
21:36 72.3 °F 60.7 °F 29.81 in WNW 0.5 mph 3.5 mph 67 % 0.00 in
21:41 72.2 °F 60.6 °F 29.81 in West 1.3 mph 4.0 mph 67 % 0.00 in
21:46 72.2 °F 60.6 °F 29.81 in WNW 0.6 mph 1.2 mph 67 % 0.00 in
21:51 72.1 °F 61.0 °F 29.81 in WNW 0.7 mph 1.2 mph 68 % 0.00 in
21:56 72.0 °F 61.3 °F 29.81 in Calm     69 % 0.00 in
22:01 72.0 °F 61.3 °F 29.81 in WNW 0.1 mph 2.3 mph 69 % 0.00 in
22:06 72.0 °F 61.7 °F 29.80 in WNW 0.2 mph 1.2 mph 70 % 0.00 in
22:11 71.9 °F 62.0 °F 29.80 in Calm   1.2 mph 71 % 0.00 in
22:16 71.8 °F 62.3 °F 29.80 in Calm   1.2 mph 72 % 0.00 in
22:21 71.6 °F 62.1 °F 29.81 in Calm   1.2 mph 72 % 0.00 in
22:26 71.5 °F 62.4 °F 29.81 in Calm     73 % 0.00 in
22:31 71.2 °F 62.1 °F 29.81 in Calm     73 % 0.00 in
22:36 71.0 °F 61.9 °F 29.81 in Calm   1.2 mph 73 % 0.00 in
22:42 70.7 °F 62.0 °F 29.81 in Calm     74 % 0.00 in
22:47 70.4 °F 61.7 °F 29.81 in Calm     74 % 0.00 in
22:52 70.1 °F 61.8 °F 29.81 in Calm     75 % 0.00 in
22:57 69.8 °F 61.5 °F 29.81 in WNW 0.2 mph 1.2 mph 75 % 0.00 in
23:02 69.5 °F 61.6 °F 29.81 in Calm     76 % 0.00 in
23:07 69.3 °F 61.8 °F 29.81 in Calm     77 % 0.00 in
23:12 69.0 °F 61.1 °F 29.81 in WNW 0.2 mph 1.2 mph 76 % 0.00 in
23:17 68.7 °F 61.2 °F 29.81 in Calm     77 % 0.00 in
23:22 68.5 °F 61.4 °F 29.81 in Calm     78 % 0.00 in
23:27 68.2 °F 61.4 °F 29.81 in Calm     79 % 0.00 in
23:32 68.0 °F 61.6 °F 29.81 in Calm     80 % 0.00 in
23:37 67.7 °F 61.7 °F 29.81 in WNW 0.1 mph 1.2 mph 81 % 0.00 in
23:42 67.5 °F 61.5 °F 29.82 in Calm     81 % 0.00 in
23:47 67.3 °F 61.6 °F 29.82 in Calm     82 % 0.00 in
23:52 67.1 °F 61.1 °F 29.82 in Calm     81 % 0.00 in
23:57 66.8 °F 61.1 °F 29.82 in Calm     82 % 0.00 in
Crab Meadow Weather
Compliments of Weather Underground - 3 mb

Script developed by  Jim McMurry - jmcmurry@mwt.net Adapted for the template by  Wim van der Kuil - Leuven-Template.eu

Extremes: The most widespread U.S. cold wave was in February of 1899. It was so cold that the Mississippi River froze over its entire length, with ice as thick as two inches even in New Orleans.